[[{"header":{"parameterUnit":"m.s-1","parameterCategory":1,"la1":30.2991,"la2":30.254,"lo1":-89.0895,"lo2":-89.0444,"dy":0.0017,"dx":0.0017,"nx":28,"ny":28,"refTime":"2023-04-05T15:00:00:Z","depth":0,"parameterNumber":2,"parameterNumberName":"U-component_of_WINDS"},"data":[0,0,0,0,0,0,0,0,0,0,0,0,0,0,0,0,0,0,0,0,0,0,0,0,0,0,0,0,0,0,0,0,0,0,0,0,0,0,0,0,0,0,0,0,0,0,0,0,0,0,0,0,0,0,0,0,0,0,-3.1445,-3.1445,0,-3.1487,-3.1488,-3.1488,-3.1444,-3.1442,-3.1441,-3.1439,-3.148,-3.1483,-3.1486,0,0,0,0,0,0,0,0,0,0,0,0,0,-3.1324,-3.1326,-3.1445,-3.1445,-3.1446,-3.1487,-3.1488,-3.1488,-3.1444,-3.1442,-3.144,-3.1438,-3.1479,-3.1483,-3.1486,0,0,0,0,0,0,0,0,0,0,0,0,0,-3.1372,-3.1327,-3.1445,-3.1429,-3.1428,-3.1487,-3.1488,-3.1489,-3.1445,-3.1442,-3.144,-3.1437,-3.1478,-3.1482,-3.1486,-3.1562,0,0,-3.1499,-3.15,0,0,0,0,0,0,0,0,-3.137,-3.1377,-3.1431,-3.143,-3.1429,-3.1458,-3.146,-3.1513,-3.1445,-3.1438,-3.1439,-3.1436,-3.1475,-3.1479,-3.1492,-3.1564,-3.1566,-3.1499,-3.1501,-3.1503,-3.1504,0,0,0,0,0,0,0,-3.1366,-3.1375,-3.1461,-3.1432,-3.1431,-3.1419,-3.1423,-3.147,-3.147,-3.1439,-3.1436,-3.1441,-3.1474,-3.1489,-3.1493,-3.1567,-3.1499,-3.1502,-3.1505,-3.1506,-3.1703,-3.1706,0,0,0,0,0,0,-3.1365,-3.1372,-3.146,-3.1463,-3.1393,-3.1423,-3.1428,-3.1451,-3.147,-3.147,-3.1444,-3.1439,-3.1483,-3.1488,-3.1494,-3.1584,-3.1503,-3.1507,-3.1509,-3.17,-3.1704,-3.1707,0,0,0,0,0,0,-3.1363,-3.1373,-3.1458,-3.1417,-3.1427,-3.1428,-3.1455,-3.1453,-3.1468,-3.1473,-3.1473,-3.1459,-3.1481,-3.1489,-3.1546,-3.1585,-3.1509,-3.1512,-3.1697,-3.1701,-3.1705,-3.1765,0,0,0,0,0,0,-3.1359,-3.1373,-3.1402,-3.1418,-3.1429,-3.151,-3.1457,-3.1456,-3.1475,-3.147,-3.1488,-3.1488,-3.148,-3.154,-3.155,-3.1589,-3.1515,-3.1693,-3.1699,-3.1704,-3.1759,-3.1771,-3.178,0,0,0,0,0,-3.1355,-3.1416,-3.1404,-3.1414,-3.1466,-3.1512,-3.1519,-3.1509,-3.1479,-3.1508,-3.1511,-3.1487,-3.158,-3.1546,-3.1557,-3.1598,-3.1691,-3.1697,-3.1704,-3.1755,-3.1769,-3.178,0,0,0,0,0,0,-3.1404,-3.1418,-3.1404,-3.1472,-3.1492,-3.1505,-3.1541,-3.1524,-3.1551,-3.1545,-3.1531,-3.1535,-3.1596,-3.1603,-3.1565,-3.1673,-3.163,-3.1639,-3.1666,-3.1679,-3.1689,-3.1685,-3.1519,0,0,0,0,0,-3.1423,-3.146,-3.147,-3.153,-3.154,-3.1539,-3.1559,-3.155,-3.1569,-3.1577,-3.1584,-3.1603,-3.1636,-3.1658,-3.1689,-3.1761,-3.1764,-3.1795,-3.1805,-3.1814,-3.1821,-3.1859,-3.1873,-3.1728,-3.1727,-3.1727,0,0,-3.1462,-3.1474,-3.1498,-3.154,-3.1554,-3.1592,-3.1546,-3.1589,-3.1617,-3.1583,-3.1637,-3.1644,-3.1664,-3.1729,-3.1758,-3.1737,-3.1862,-3.1822,-3.1828,-3.1831,-3.1867,-3.1881,-3.1893,-3.1732,-3.1731,-3.173,0,0,-3.1552,-3.1566,-3.1617,-3.1632,-3.1654,-3.1653,-3.1666,-3.1682,-3.1685,-3.174,-3.1715,-3.1748,-3.1806,-3.1821,-3.1836,-3.1934,-3.1913,-3.1945,-3.1998,-3.2036,-3.2047,-3.2058,-3.2092,-3.2104,-3.1952,-3.1953,-3.1953,0,-3.1597,-3.1655,-3.1645,-3.1689,-3.1708,-3.1681,-3.1732,-3.1747,-3.1777,-3.1791,-3.1767,-3.1839,-3.1851,-3.1919,-3.1943,-3.1956,-3.1969,-3.1942,-3.2047,-3.2057,-3.2066,-3.2098,-3.2111,-3.1956,-3.1956,-3.1955,-3.1955,0,-3.1709,-3.1749,-3.1788,-3.1819,-3.1842,-3.189,-3.1887,-3.1911,-3.1901,-3.1903,-3.1959,-3.1972,-3.2005,-3.2021,-3.2011,-3.2088,-3.2074,-3.2049,-3.2006,-3.2084,-3.2114,-3.2126,-3.1961,-3.196,-3.1959,-3.1958,0,0,-3.1829,-3.1856,-3.187,-3.1884,-3.1907,-3.1937,-3.1984,-3.2017,-3.2038,-3.2061,-3.2099,-3.2149,-3.2126,-3.2144,-3.2135,-3.2169,-3.2244,-3.2139,-3.2139,-3.2157,-3.2329,-3.2347,-3.2361,-3.2231,-3.2234,-3.2236,-3.2327,0,-3.1919,-3.2,-3.1994,-3.207,-3.2107,-3.2082,-3.2123,-3.2141,-3.2144,-3.2175,-3.2179,-3.2214,-3.2182,-3.2192,-3.2224,-3.2228,-3.2278,-3.2222,-3.2265,-3.2267,-3.2259,-3.2377,-3.2396,-3.2482,-3.2339,-3.2341,-3.2343,0,-3.2035,-3.2062,-3.2143,-3.2161,-3.2176,-3.2212,-3.2243,-3.2273,-3.2293,-3.2293,-3.2314,-3.23,-3.2346,-3.2304,-3.2367,-3.2329,-3.2346,-3.2351,-3.2354,-3.2356,-3.2308,-3.2381,-3.2509,-3.2521,-3.2361,-3.236,-3.2358,0,-3.2113,-3.2171,-3.2226,-3.2239,-3.2261,-3.2288,-3.2298,-3.2316,-3.2337,-3.2363,-3.2376,-3.2408,-3.2424,-3.2449,-3.2444,-3.2413,-3.2508,-3.2465,-3.2508,-3.2509,-3.2528,-3.2526,-3.2659,-3.2542,-3.2542,-3.2542,-3.2541,0,-3.2213,-3.2263,-3.2261,-3.2295,-3.2351,-3.2343,-3.2397,-3.2405,-3.2421,-3.2456,-3.2437,-3.2469,-3.2461,-3.2494,-3.249,-3.2542,-3.255,-3.2551,-3.2549,-3.2552,-3.2552,-3.2562,-3.2555,-3.2545,-3.2544,-3.2544,-3.2543,0,-3.2309,-3.231,-3.2369,-3.2386,-3.2392,-3.2432,-3.2446,-3.2478,-3.248,-3.2524,-3.2534,-3.2538,-3.2575,-3.2573,-3.2615,-3.2612,-3.2677,-3.2669,-3.267,-3.2668,-3.2711,-3.2706,-3.2853,-3.2871,-3.2744,-3.2745,-3.2746,0,-3.2372,-3.241,-3.2432,-3.2454,-3.2467,-3.2503,-3.2524,-3.2518,-3.2541,-3.2568,-3.2596,-3.2632,-3.266,-3.2721,-3.2727,-3.2759,-3.275,-3.28,-3.2755,-3.2756,-3.2749,-3.2747,-3.275,-3.2808,-3.2809,-3.281,-3.2811,0,-3.2484,-3.2483,-3.2515,-3.2547,-3.2574,-3.2599,-3.2622,-3.2641,-3.2637,-3.2664,-3.2702,-3.2724,-3.2768,-3.2803,-3.2834,-3.2844,-3.2827,-3.2826,-3.2837,-3.284,-3.2838,-3.2838,-3.2692,-3.2822,-3.2821,-3.282,-3.2819,-3.2819,-3.2564,-3.2597,-3.2617,-3.2654,-3.2671,-3.2693,-3.2724,-3.2731,-3.2763,-3.2798,-3.2793,-3.2836,-3.2856,-3.2896,-3.2909,-3.2942,-3.2924,-3.2941,-3.2945,-3.2949,-3.2953,-3.2835,-3.2948,-3.2947,-3.2947,-3.2947,-3.2947,0,-3.2674,-3.2686,-3.272,-3.2753,-3.2782,-3.2765,-3.279,-3.2815,-3.2853,-3.2873,-3.2902,-3.2946,-3.2981,-3.299,-3.3024,-3.3048,-3.3041,-3.3057,-3.3054,-3.3057,-3.2968,-3.2954,-3.3062,-3.3062,-3.3062,-3.3062,-3.3062,-3.3062,-3.2734,-3.2788,-3.279,-3.2852,-3.2864,-3.2907,-3.2922,-3.2943,-3.2959,-3.301,-3.3039,-3.3045,-3.3061,-3.3096,-3.3126,-3.3128,-3.3141,-3.316,-3.3158,-3.3075,-3.3063,-3.3052,-3.3039,-3.3163,-3.3163,-3.3244,-3.3245,-3.3245]},{"header":{"parameterUnit":"m.s-1","parameterCategory":1,"la1":30.2991,"la2":30.254,"lo1":-89.0895,"lo2":-89.0444,"dy":0.0017,"dx":0.0017,"nx":28,"ny":28,"refTime":"2023-04-05T15:00:00:Z","depth":0,"parameterNumber":3,"parameterNumberName":"V-component_of_WINDS"},"data":[0,0,0,0,0,0,0,0,0,0,0,0,0,0,0,0,0,0,0,0,0,0,0,0,0,0,0,0,0,0,0,0,0,0,0,0,0,0,0,0,0,0,0,0,0,0,0,0,0,0,0,0,0,0,0,0,0,0,0.7839,0.7839,0,0.7881,0.7882,0.7882,0.7898,0.7898,0.7898,0.7898,0.794,0.7941,0.7942,0,0,0,0,0,0,0,0,0,0,0,0,0,0.7771,0.7773,0.7839,0.7839,0.784,0.7881,0.7882,0.7882,0.7898,0.7898,0.7898,0.7898,0.7939,0.7941,0.7942,0,0,0,0,0,0,0,0,0,0,0,0,0,0.7806,0.7773,0.7839,0.7853,0.7855,0.7881,0.7882,0.7883,0.7898,0.7898,0.7898,0.7898,0.7939,0.794,0.7942,0.7957,0,0,0.7948,0.7949,0,0,0,0,0,0,0,0,0.7804,0.7808,0.785,0.7852,0.7854,0.7884,0.7873,0.7907,0.7899,0.7882,0.7898,0.7898,0.7921,0.7924,0.7933,0.7959,0.7961,0.7948,0.7949,0.795,0.795,0,0,0,0,0,0,0,0.7801,0.7807,0.7856,0.7851,0.7853,0.7857,0.7862,0.788,0.7902,0.7883,0.7885,0.7889,0.7922,0.7931,0.7934,0.7961,0.7948,0.795,0.7951,0.7951,0.8004,0.8004,0,0,0,0,0,0,0.7797,0.7804,0.7854,0.7857,0.7828,0.7858,0.7864,0.7875,0.7902,0.7906,0.789,0.789,0.7928,0.7932,0.7935,0.7955,0.795,0.7952,0.7953,0.8003,0.8004,0.8004,0,0,0,0,0,0,0.7795,0.7801,0.7853,0.7831,0.7838,0.786,0.7872,0.7876,0.7885,0.7907,0.791,0.7894,0.7928,0.7933,0.7952,0.7957,0.7952,0.7954,0.8003,0.8004,0.8004,0.7995,0,0,0,0,0,0,0.7793,0.78,0.7806,0.7831,0.7839,0.7869,0.7872,0.7877,0.7888,0.7889,0.7912,0.7916,0.7928,0.7949,0.7954,0.796,0.7955,0.8003,0.8003,0.8004,0.7995,0.7995,0.7995,0,0,0,0,0,0.7791,0.7801,0.7806,0.7812,0.7847,0.7869,0.7873,0.7888,0.7888,0.7894,0.7909,0.7915,0.7956,0.7951,0.7956,0.7963,0.8002,0.8003,0.8004,0.7995,0.7995,0.7995,0,0,0,0,0,0,0.7775,0.7805,0.7811,0.783,0.7847,0.7871,0.7879,0.7887,0.7904,0.7904,0.7921,0.7926,0.7944,0.7955,0.7949,0.7979,0.798,0.7981,0.7971,0.7972,0.7972,0.7968,0.7957,0,0,0,0,0,0.7774,0.779,0.7815,0.7829,0.7837,0.7857,0.7867,0.7877,0.7895,0.7902,0.7918,0.7935,0.7952,0.7962,0.7979,0.7997,0.8003,0.8004,0.8004,0.8004,0.8005,0.8017,0.8018,0.8006,0.8006,0.8006,0,0,0.7772,0.779,0.7799,0.7826,0.7841,0.7857,0.7863,0.7879,0.7891,0.7904,0.7924,0.7936,0.7957,0.7976,0.7985,0.7986,0.801,0.8005,0.8005,0.8006,0.8018,0.8019,0.802,0.8007,0.8007,0.8007,0,0,0.7776,0.7791,0.7805,0.782,0.7842,0.7855,0.7859,0.7883,0.7892,0.7912,0.7923,0.7938,0.7966,0.798,0.7991,0.8003,0.801,0.8008,0.8008,0.8019,0.802,0.8021,0.8026,0.8027,0.8009,0.8009,0.8009,0,0.7769,0.7794,0.7811,0.7827,0.784,0.7854,0.7869,0.7882,0.7908,0.7916,0.7917,0.7954,0.7969,0.7992,0.7995,0.8003,0.8008,0.8005,0.8019,0.802,0.8021,0.8026,0.8027,0.8009,0.8009,0.8009,0.8009,0,0.7786,0.7803,0.7812,0.7839,0.7852,0.7867,0.7886,0.7898,0.7907,0.7921,0.7942,0.796,0.7981,0.7987,0.7996,0.8012,0.8012,0.8016,0.8016,0.8022,0.8026,0.8028,0.8008,0.8008,0.8008,0.8008,0,0,0.778,0.7817,0.782,0.7833,0.7859,0.7873,0.7889,0.7911,0.7921,0.7939,0.7953,0.7978,0.7982,0.7995,0.8005,0.8015,0.8024,0.8018,0.8019,0.8019,0.8044,0.8041,0.8043,0.8029,0.803,0.803,0.8043,0,0.7787,0.7818,0.7834,0.7858,0.7875,0.7889,0.7904,0.7922,0.7935,0.7951,0.7966,0.7983,0.7987,0.7995,0.8005,0.8021,0.803,0.802,0.8043,0.8043,0.8037,0.8046,0.8042,0.8053,0.8045,0.8045,0.8045,0,0.78,0.7819,0.7845,0.7871,0.7879,0.7891,0.7914,0.7929,0.795,0.7959,0.7974,0.7985,0.8003,0.8003,0.8029,0.8022,0.8033,0.8042,0.8043,0.8045,0.8044,0.8048,0.8057,0.8059,0.8048,0.8048,0.8048,0,0.7793,0.7826,0.7846,0.7856,0.7887,0.7896,0.7909,0.793,0.7943,0.7962,0.7971,0.7991,0.8003,0.8019,0.8035,0.8033,0.806,0.8061,0.8068,0.8067,0.8072,0.8071,0.8082,0.8079,0.8079,0.8079,0.8079,0,0.78,0.7815,0.7843,0.7855,0.7873,0.7892,0.7909,0.7924,0.7943,0.7958,0.7972,0.7986,0.8007,0.8024,0.8037,0.8057,0.8062,0.807,0.8073,0.8068,0.8067,0.8075,0.8075,0.8079,0.8079,0.8079,0.8079,0,0.7795,0.7815,0.7837,0.7866,0.7873,0.7885,0.7909,0.7922,0.7937,0.7956,0.7962,0.7985,0.8006,0.8024,0.8051,0.806,0.808,0.8084,0.8073,0.8075,0.8081,0.808,0.8097,0.8101,0.8095,0.8095,0.8095,0,0.7798,0.781,0.784,0.7852,0.7866,0.7884,0.7898,0.7917,0.7931,0.7957,0.7966,0.7988,0.8007,0.8039,0.8058,0.8079,0.8084,0.8089,0.8087,0.8083,0.8085,0.8084,0.8085,0.8088,0.8088,0.8088,0.8088,0,0.7801,0.7811,0.783,0.7853,0.7869,0.7888,0.7907,0.7915,0.7939,0.7953,0.7975,0.799,0.8019,0.804,0.8064,0.8077,0.8087,0.8089,0.8092,0.8087,0.808,0.8085,0.8073,0.8088,0.8088,0.8088,0.8088,0.8088,0.78,0.7812,0.7836,0.7857,0.7874,0.7892,0.7906,0.7924,0.7942,0.7968,0.7978,0.8001,0.8023,0.8056,0.807,0.8088,0.8089,0.8093,0.8094,0.8095,0.8094,0.8078,0.8092,0.8092,0.8092,0.8092,0.8092,0,0.7804,0.7821,0.784,0.7868,0.7885,0.7893,0.7916,0.7929,0.7949,0.7969,0.7988,0.8014,0.8036,0.8057,0.808,0.809,0.8095,0.8096,0.8095,0.8098,0.8091,0.8087,0.8091,0.8091,0.8091,0.8091,0.8091,0.8091,0.7809,0.783,0.7843,0.7873,0.7889,0.7912,0.7924,0.7941,0.7958,0.7986,0.8005,0.8019,0.804,0.8065,0.8086,0.8092,0.8099,0.8099,0.8105,0.8099,0.8098,0.8098,0.8094,0.81,0.81,0.8111,0.8111,0.8111]}]]